When you browse on this site, cookies collect data to enhance your experience and personalize the content and advertising you see.
Visit our Privacy Policy to learn more. By continuing to use the site, you agree to this use of cookies and data.
  • In Lithuania
  • List of Countries
  • For 7 days
  • Water Temperature
  • Satellite Maps
  • Weather Map
  • Weather Widgets
  • user-avatar
    Login

    Hourly Weather Elitnyy

    Today, 11 December, Tuesday

    Time Temperature Precipitation Wind Pressure Humidity
    00:00 +1°C° 0.4 mm 6 mps 753 mmHg 94%
    01:00 +1°C° 0 mm 5 mps 753 mmHg 94%
    02:00 +1°C° 0 mm 5 mps 753 mmHg 94%
    03:00 +2°C° 0 mm 3 mps 753 mmHg 97%
    04:00 +2°C° 0 mm 3 mps 753 mmHg 96%
    05:00 +1°C° 0 mm 4 mps 753 mmHg 96%
    06:00 +1°C° 0 mm 5 mps 753 mmHg 96%
    07:00 +1°C° 0 mm 5 mps 753 mmHg 96%
    08:00 +1°C° 0 mm 5 mps 753 mmHg 96%
    09:00 +1°C° 0 mm 5 mps 753 mmHg 96%
    10:00 +1°C° 0 mm 6 mps 753 mmHg 95%
    11:00 +1°C° 0 mm 6 mps 752 mmHg 94%
    12:00 +1°C° 0 mm 6 mps 752 mmHg 93%
    13:00 +2°C° 0 mm 6 mps 752 mmHg 92%
    14:00 +2°C° 0 mm 7 mps 751 mmHg 92%
    15:00 +2°C° 0 mm 7 mps 751 mmHg 91%
    16:00 +2°C° 0.3 mm 7 mps 751 mmHg 92%
    17:00 +2°C° 0.3 mm 6 mps 751 mmHg 92%
    18:00 +2°C° 0.3 mm 6 mps 752 mmHg 93%
    19:00 +2°C° 0.8 mm 6 mps 751 mmHg 93%
    20:00 +2°C° 0.8 mm 7 mps 751 mmHg 94%
    21:00 +2°C° 0.8 mm 7 mps 751 mmHg 94%
    22:00 +3°C° 0.2 mm 7 mps 751 mmHg 94%
    23:00 +3°C° 0.2 mm 7 mps 751 mmHg 94%

    Tomorrow, 12 December, Wednesday

    Time Temperature Precipitation Wind Pressure Humidity
    00:00 +3°C° 0.2 mm 7 mps 751 mmHg 94%
    01:00 +3°C° 0.1 mm 7 mps 751 mmHg 93%
    02:00 +3°C° 0.1 mm 7 mps 751 mmHg 92%
    03:00 +4°C° 0.1 mm 7 mps 750 mmHg 92%
    04:00 +4°C° 0 mm 7 mps 750 mmHg 90%
    05:00 +4°C° 0 mm 7 mps 750 mmHg 88%
    06:00 +4°C° 0 mm 7 mps 750 mmHg 85%
    07:00 +4°C° 0 mm 7 mps 750 mmHg 84%
    08:00 +4°C° 0 mm 7 mps 750 mmHg 83%
    09:00 +4°C° 0 mm 7 mps 750 mmHg 82%
    10:00 +4°C° 0.1 mm 7 mps 751 mmHg 80%
    11:00 +3°C° 0.1 mm 7 mps 751 mmHg 79%
    12:00 +2°C° 0.1 mm 8 mps 751 mmHg 77%
    13:00 +2°C° 0.1 mm 8 mps 752 mmHg 77%
    14:00 +2°C° 0.1 mm 8 mps 752 mmHg 77%
    15:00 +3°C° 0.1 mm 7 mps 752 mmHg 78%
    16:00 +3°C° 0 mm 7 mps 753 mmHg 79%
    17:00 +2°C° 0 mm 7 mps 753 mmHg 80%
    18:00 +2°C° 0 mm 7 mps 753 mmHg 81%
    19:00 +2°C° 0 mm 6 mps 754 mmHg 82%
    20:00 +1°C° 0 mm 6 mps 754 mmHg 83%
    21:00 +1°C° 0 mm 6 mps 755 mmHg 84%
    22:00 +1°C° 0 mm 5 mps 755 mmHg 85%
    23:00 +1°C° 0 mm 4 mps 755 mmHg 86%

    Day after tomorrow, 13 December, Thursday

    Time Temperature Precipitation Wind Pressure Humidity
    00:00 0°C° 0 mm 4 mps 756 mmHg 86%
    01:00 +1°C° 0 mm 3 mps 756 mmHg 87%
    02:00 +1°C° 0 mm 3 mps 757 mmHg 88%
    03:00 +1°C° 0 mm 3 mps 757 mmHg 89%
    04:00 0°C° 0 mm 3 mps 757 mmHg 90%
    05:00 0°C° 0 mm 3 mps 758 mmHg 90%
    06:00 0°C° 0 mm 3 mps 758 mmHg 91%
    07:00 0°C° 0 mm 3 mps 758 mmHg 89%
    08:00 0°C° 0 mm 3 mps 759 mmHg 88%
    09:00 0°C° 0 mm 3 mps 760 mmHg 86%
    10:00 +1°C° 0 mm 3 mps 760 mmHg 82%
    11:00 +2°C° 0 mm 3 mps 760 mmHg 78%
    12:00 +1°C° 0 mm 4 mps 760 mmHg 73%
    13:00 +3°C° 0 mm 3 mps 761 mmHg 73%
    14:00 +3°C° 0 mm 3 mps 761 mmHg 73%
    15:00 +4°C° 0 mm 2 mps 761 mmHg 73%
    16:00 +3°C° 0 mm 2 mps 762 mmHg 77%
    17:00 +3°C° 0 mm 2 mps 762 mmHg 80%
    18:00 +2°C° 0 mm 2 mps 762 mmHg 84%
    19:00 +2°C° 0 mm 2 mps 763 mmHg 85%
    20:00 +2°C° 0 mm 2 mps 763 mmHg 87%
    21:00 +1°C° 0 mm 2 mps 763 mmHg 89%
    22:00 +1°C° 0 mm 2 mps 763 mmHg 89%
    23:00 +1°C° 0 mm 2 mps 763 mmHg 89%

    14 December, Friday

    Time Temperature Precipitation Wind Pressure Humidity
    00:00 +1°C° 0 mm 2 mps 764 mmHg 90%
    01:00 +1°C° 0 mm 2 mps 764 mmHg 89%
    02:00 +1°C° 0 mm 2 mps 764 mmHg 89%
    03:00 +1°C° 0 mm 2 mps 764 mmHg 88%
    04:00 +1°C° 0 mm 2 mps 764 mmHg 88%
    05:00 +1°C° 0 mm 2 mps 764 mmHg 88%
    06:00 +1°C° 0 mm 2 mps 764 mmHg 87%
    07:00 +1°C° 0 mm 2 mps 764 mmHg 87%
    08:00 +1°C° 0 mm 2 mps 764 mmHg 86%
    09:00 +1°C° 0 mm 2 mps 764 mmHg 85%
    10:00 +2°C° 0 mm 2 mps 764 mmHg 82%
    11:00 +3°C° 0 mm 2 mps 764 mmHg 79%
    12:00 +4°C° 0 mm 2 mps 764 mmHg 75%
    13:00 +4°C° 0 mm 2 mps 764 mmHg 76%
    14:00 +4°C° 0 mm 2 mps 764 mmHg 77%
    15:00 +4°C° 0 mm 2 mps 764 mmHg 77%
    16:00 +3°C° 0 mm 2 mps 764 mmHg 80%
    17:00 +2°C° 0 mm 2 mps 764 mmHg 83%
    18:00 +3°C° 0 mm 1 mps 764 mmHg 86%
    19:00 +3°C° 0 mm 1 mps 765 mmHg 87%
    20:00 +2°C° 0 mm 1 mps 765 mmHg 87%
    21:00 +2°C° 0 mm 1 mps 765 mmHg 88%
    22:00 +2°C° 0 mm 1 mps 765 mmHg 88%
    23:00 +2°C° 0 mm 1 mps 765 mmHg 88%

    15 December, Saturday

    Time Temperature Precipitation Wind Pressure Humidity
    00:00 +2°C° 0 mm 1 mps 765 mmHg 88%
    01:00 +2°C° 0.1 mm 1 mps 766 mmHg 88%
    02:00 +2°C° 0.1 mm 1 mps 766 mmHg 88%
    03:00 +2°C° 0.1 mm 1 mps 766 mmHg 88%
    04:00 +2°C° 0.1 mm 1 mps 766 mmHg 88%
    05:00 +2°C° 0.1 mm 1 mps 766 mmHg 88%
    06:00 +2°C° 0.1 mm 1 mps 766 mmHg 88%
    07:00 +2°C° 0 mm 1 mps 766 mmHg 87%
    08:00 +3°C° 0 mm 1 mps 767 mmHg 87%
    09:00 +3°C° 0 mm 1 mps 767 mmHg 87%
    10:00 +3°C° 0 mm 1 mps 767 mmHg 83%
    11:00 +4°C° 0 mm 1 mps 767 mmHg 80%
    12:00 +5°C° 0 mm 1 mps 767 mmHg 76%
    13:00 +5°C° 0 mm 1 mps 768 mmHg 76%
    14:00 +5°C° 0 mm 1 mps 768 mmHg 76%
    15:00 +5°C° 0 mm 1 mps 768 mmHg 77%
    16:00 +3°C° 0 mm 2 mps 768 mmHg 80%
    17:00 +2°C° 0 mm 2 mps 768 mmHg 83%
    18:00 +1°C° 0 mm 2 mps 768 mmHg 86%
    19:00 +1°C° 0 mm 2 mps 769 mmHg 87%
    20:00 0°C° 0 mm 3 mps 769 mmHg 87%
    21:00 -1°C° 0 mm 3 mps 769 mmHg 88%
    22:00 -1°C° 0 mm 3 mps 769 mmHg 88%
    23:00 -1°C° 0 mm 3 mps 769 mmHg 88%

    16 December, Sunday

    Time Temperature Precipitation Wind Pressure Humidity
    00:00 -1°C° 0 mm 3 mps 769 mmHg 88%
    01:00 -1°C° 0 mm 3 mps 770 mmHg 88%
    02:00 -2°C° 0 mm 3 mps 770 mmHg 88%
    03:00 -3°C° 0 mm 4 mps 770 mmHg 88%
    04:00 -3°C° 0 mm 4 mps 770 mmHg 87%
    05:00 -3°C° 0 mm 4 mps 770 mmHg 87%
    06:00 -3°C° 0 mm 4 mps 770 mmHg 87%
    07:00 -3°C° 0 mm 4 mps 770 mmHg 86%
    08:00 -4°C° 0 mm 5 mps 770 mmHg 84%
    09:00 -4°C° 0 mm 5 mps 770 mmHg 83%
    10:00 -2°C° 0 mm 5 mps 770 mmHg 79%
    11:00 -1°C° 0 mm 5 mps 770 mmHg 76%
    12:00 -2°C° 0 mm 6 mps 770 mmHg 72%
    13:00 -2°C° 0 mm 6 mps 770 mmHg 72%
    14:00 -2°C° 0 mm 6 mps 770 mmHg 72%
    15:00 -2°C° 0 mm 6 mps 769 mmHg 71%
    16:00 -2°C° 0 mm 6 mps 770 mmHg 75%
    17:00 -3°C° 0 mm 6 mps 770 mmHg 78%
    18:00 -4°C° 0 mm 6 mps 770 mmHg 81%
    19:00 -4°C° 0 mm 7 mps 770 mmHg 81%
    20:00 -4°C° 0 mm 7 mps 770 mmHg 82%
    21:00 -6°C° 0 mm 7 mps 770 mmHg 82%
    22:00 -6°C° 0 mm 7 mps 770 mmHg 81%
    23:00 -6°C° 0 mm 7 mps 770 mmHg 81%
    Show more